Regional Weather Roundup
Issued by NWS

Home | Current Version | Previous Version | Graphics & Text | Print | Product List | Glossary On
Versions: 1 2 3 4 5 6 7 8 9 10 11 12 13 14 15 16 17 18 19 20 21 22 23 24 25 26 27
000
ASUS45 KCYS 201810
RWRWY

WYOMING REGIONAL WEATHER ROUNDUP
NATIONAL WEATHER SERVICE CHEYENNE WY
1100 AM MST MON NOV 20 2017

NOTE:  "FAIR" INDICATES FEW OR NO CLOUDS BELOW 12,000 FEET
WITH NO SIGNIFICANT WEATHER AND/OR OBSTRUCTIONS TO VISIBILITY.

WYZ001-201900-
YELLOWSTONE NATIONAL PARK

CITY           SKY/WX    TMP DP  RH WIND       PRES   REMARKS
LK YELLOWSTONE   N/A     29  21  72 VRB6      30.00F WCI  23
6HR MIN TEMP:  16; 6HR MAX TEMP:  29; 6HR PCP:  0.01;

W YELLOWSTONE  NOT AVBL

$$
WYZ002>013-054>058-071-098>099-201900-
NORTHERN WYOMING

CITY           SKY/WX    TMP DP  RH WIND       PRES   REMARKS
JACKSON        LGT RAIN  37  24  59 S20G25    30.02R WCI  27
CODY           FAIR      48  24  39 W23G43    29.78F
GREYBULL       FAIR      34  25  69 S3        29.80F
6HR MIN TEMP:  23; 6HR MAX TEMP:  34;

WORLAND        FAIR      34  26  72 CALM      29.81R
6HR MIN TEMP:  21; 6HR MAX TEMP:  34;

SHERIDAN       FAIR      58  21  24 W15       29.68R
6HR MIN TEMP:  48; 6HR MAX TEMP:  59;

BUFFALO        FAIR      50  19  29 SW14G22   29.71R
6HR MIN TEMP:  44; 6HR MAX TEMP:  55;

GILLETTE       FAIR      54  15  21 SW21      29.69R
6HR MIN TEMP:  43; 6HR MAX TEMP:  55;

HULETT         FAIR      50  16  25 SW12G18   29.66R
NEWCASTLE      FAIR      50  10  20 NW6       29.70R

$$
WYZ014>020-022>026-101>103-201900-
CENTRAL WYOMING

CITY           SKY/WX    TMP DP  RH WIND       PRES   REMARKS
BIG PINEY      FAIR      27  18  69 E5        30.08R WCI  22
6HR MIN TEMP:  11; 6HR MAX TEMP:  27;

PINEDALE       MOCLDY    34  25  69 CALM      30.08R
DUBOIS         MOCLDY    36  23  60 N18G30    29.95F WCI  25
LANDER         FAIR      46  16  30 SE15      29.85R
6HR MIN TEMP:  30; 6HR MAX TEMP:  47;

RIVERTON       FAIR      47  23  38 NW16      29.87R
6HR MIN TEMP:  25; 6HR MAX TEMP:  48;

CASPER         FAIR      46  14  27 SW30G38   29.85R
6HR MIN TEMP:  34; 6HR MAX TEMP:  46; 6HR PCP: TRACE;

DOUGLAS        FAIR      52  19  27 W28G38    29.79R
6HR MIN TEMP:  43; 6HR MAX TEMP:  52;


$$
WYZ021-027>030-104>119-201900-
SOUTHERN WYOMING

CITY           SKY/WX    TMP DP  RH WIND       PRES   REMARKS
EVANSTON       PTSUNNY   37  23  56 SW12      30.10R WCI  29
6HR MIN TEMP:  26; 6HR MAX TEMP:  37;

KEMMERER       FAIR      34  18  51 SW5       30.08S WCI  30
FORT BRIDGER   CLOUDY    37  24  58 W10       30.12R WCI  30
ROCK SPRINGS   FAIR      36  19  50 W18       30.05R WCI  26
6HR MIN TEMP:  21; 6HR MAX TEMP:  36;

DIXON          FAIR      37  18  46 SW13      30.12R WCI  29
RAWLINS        FAIR      39  14  36 W15G21    30.02R WCI  31
6HR MIN TEMP:  31; 6HR MAX TEMP:  40; 6HR PCP: TRACE;

SARATOGA       FAIR      43  14  31 N5        30.05R
LARAMIE        FAIR      47  10  22 SW22G33   29.95R
6HR MIN TEMP:  34; 6HR MAX TEMP:  47;

CHEYENNE       FAIR      55   1  11 W45G62    29.77S
6HR MIN TEMP:  42; 6HR MAX TEMP:  55;

TORRINGTON     FAIR      59   9  13 W36G47    29.73R
6HR MIN TEMP:  50; 6HR MAX TEMP:  61;

PINE BLUFFS    FAIR      57   3  11 N3        29.81F

$$




USA.gov is the U.S. government's official web portal to all federal, state and local government web resources and services.